Regional Weather Roundup
Issued by NWS Upton, NY

Current Version | Previous Version | Text Only | Print | Product List | Glossary On
Versions: 1 2 3 4 5 6 7 8 9 10 11 12 13 14 15 16 17 18 19 20 21 22 23 24 25 26 27
000
ASUS41 KOKX 301304
RWROKX

REGIONAL WEATHER ROUNDUP
NATIONAL WEATHER SERVICE NEW YORK NY
900 AM EDT TUE AUG 30 2016

NOTE: "FAIR" INDICATES FEW OR NO CLOUDS BELOW 12,000 FEET WITH NO
SIGNIFICANT WEATHER AND/OR OBSTRUCTIONS TO VISIBILITY.

NYZ071-072-176-178-NJZ106-104-301400-
NEW YORK CITY METRO AREA

CITY           SKY/WX    TMP DP  RH WIND       PRES   REMARKS
Central Park   SUNNY     73  59  61 CALM      30.20R
LaGuardia APRT MOSUNNY   75  59  57 NE9       30.17R
Kennedy INTL   MOSUNNY   75  61  61 E7        30.18R
Newark/Liberty PTSUNNY   76  58  53 E7        30.17R
Bronx Bot Gard   N/A     73  59  60 NW3       30.20R
Wall St Helipt MOSUNNY   77  63  61 NE6G41    30.18R
Teterboro      MOSUNNY   74  56  53 E7        30.17R
$$

NYZ177-179-078>081-301400-
LONG ISLAND NEW YORK

CITY           SKY/WX    TMP DP  RH WIND       PRES   REMARKS
Farmingdale    SUNNY     75  60  59 NE6       30.18R
MacArthur/ISP  MOSUNNY   73  63  70 SE5       30.17R
Shirley        SUNNY     74  61  63 CALM      30.18R
Riverhead      NOT AVBL
Westhampton    SUNNY     73  59  61 VRB3      30.19R
Southampton      N/A     73  63  68 SE3       30.13S
Bridgehampton    N/A     68  63  83 CALM      30.16R
East Hampton   FAIR      72  60  66 E6        30.16S
Montauk          N/A     70  61  73 VRB5      30.18S
$$

NYZ052-065-067-301400-
HUDSON VALLEY

CITY           SKY/WX    TMP DP  RH WIND       PRES   REMARKS
White Plains   SUNNY     70  57  63 E5        30.19R
Newburgh       SUNNY     70  61  73 MISG      30.21S
Montgomery     SUNNY     69  61  75 NE5       30.20R
Poughkeepsie   SUNNY     67  59  75 N5        30.19S
Albany         MOSUNNY   66  58  75 N3        30.19F
$$

NJZ001-105-106-008-010-013-015-019>022-104-301400-
NEW JERSEY

CITY           SKY/WX    TMP DP  RH WIND       PRES   REMARKS
Newark/Liberty PTSUNNY   76  58  53 E7        30.17R
Teterboro      MOSUNNY   74  56  53 E7        30.17R
Caldwell       MOSUNNY   72  57  59 NE5       30.19R
Morristown     MOSUNNY   70  61  73 E5        30.19R
Somerville     MOSUNNY   73  57  57 NE6       30.16R
Linden         FAIR      76  58  53 SE5       30.18S
Sussex         SUNNY     68  62  81 CALM      30.20S
Abdover          N/A     66  59  78 NE6       30.20S
Trenton        MOSUNNY   74  61  63 E7        30.16S
Millville      SUNNY     75  69  81 NE8       30.15R
Atlantic City  SUNNY     80  67  64 E14       30.14R
Wrightstown    SUNNY     75  67  76 E7        30.13S
Toms River     SUNNY     79  64  60 VRB6      30.15S
Belmar         MOSUNNY   75  66  73 E9        30.17R
$$

PAZ047>061-062-071-301400-
EASTERN PENNSYLVANIA

CITY           SKY/WX    TMP DP  RH WIND       PRES   REMARKS
Philadelphia   MOSUNNY   77  63  61 NE9       30.16R
Allentown      MOSUNNY   69  59  70 CALM      30.20R
Scranton       SUNNY     66  58  75 N3        30.20F
$$

CTZ002-004>006-009-010-012-RIZ004-006-007-MAZ004-011-015-301400-
SOUTHERN NEW ENGLAND
 IN CT

CITY           SKY/WX    TMP DP  RH WIND       PRES   REMARKS
Bradley INTL   MOSUNNY   67  56  67 VRB3      30.20R
Hartford       SUNNY     70  57  63 N7        30.19R
Danbury        SUNNY     67  56  67 CALM      30.21R
Wtrbury/Oxford SUNNY     66  54  63 NE5       30.22R
Bridgeport     SUNNY     72  57  59 VRB6      30.18R
Meriden        SUNNY     71  55  56 N6        30.19R
New Haven      MOSUNNY   71  57  61 VRB3      30.19R
Chester        FAIR      70  55  60 CALM      30.19R
Groton         SUNNY     73  58  59 NE3       30.17R
Wilimantic     SUNNY     66  58  75 CALM      30.20R

 IN RI

CITY           SKY/WX    TMP DP  RH WIND       PRES   REMARKS
Providence     MOSUNNY   72  55  55 VRB3      30.19R
Block Island   SUNNY     72  60  66 E6        30.18R
Westerly       SUNNY     71  55  56 NE3       30.18R
 IN MA

CITY           SKY/WX    TMP DP  RH WIND       PRES   REMARKS
Boston         MOSUNNY   71  56  58 NW6       30.17R
Worcester      SUNNY     67  51  56 NW3       30.20R
Westfield      SUNNY     66  55  67 N5        30.20R
Provincetown   SUNNY     70  61  73 N5        30.17R
Nantucket      MOSUNNY   71  62  73 E5        30.15S
$$

ANZ330-335-338-340-345-350-353-355-301400-
COASTAL MARINE OBSERVATIONS


STATION/POSITION TIME  SKY/WX   TEMP    WIND        PRES    VSBY  WAVE
                                AIR SEA DIR/SP/G                  HT/PER
                 (UTC)          (F)     (DEG/KT/KT) (MB)    (MI)  (FT/S)
NY HARB ENTRANCE 1150            74 77   70/ 14/ 16 1020.7          4/11
20S FIRE ISLAND  1150            75 75  100/ 12/ 14 1020.4          5/11
GREAT SOUTH BAY  1200            71 79   70/  8/ 10   N/A
23 SSW MONTAUK P 1150            73 76  100/  8/ 10 1021.4          5/11
15 E BARNEGAT LI 1200               76                N/A           5/13
HUDSON CANYON    1150            76 78              1020.2          5/12
KINGS POINT      1200            73 76              1021.4
EXECUTION ROCKS  1200            72      60/  8/ 12   N/A
CENTRAL LI SOUND NOT AVBL
EASTERN LI SOUND 1200            72 70   20/  6/  8   N/A
ROBBINS REEF     1212            73      90/  7/  8 1020.7
$$


>>>>>>>>>>>>>>>>>>>>>>>>>>>> KEY <<<<<<<<<<<<<<<<<<<<<<<<<<<
>                                                          <
>     SKY/WX - Sky Condition/Present Weather               <
>     TMP    - Temperature in Fahrenheit                   <
>     DP     - Dew Point in Fahrenheit                     <
>     RH     - Relative Humidity in Percent                <
>     WIND   - Direction (from) and Speed in MPH           <
>     PRES   - Mean Sea Level Pressure (inches of Hg)      <
>     WCI    - Wind Chill Index                            <
>     VSB    - VISIBILITY IN MILES                         <
>     HX     - HEAT INDEX                                  <
>     TC     - TEMPERATURE IN CELSIUS                      <
>     VRB    - VARIABLE WIND DIRECTION                     <
>                                                          <
>>>>>>>>>>>>>>>>>>>>>>>>>>>> KEY <<<<<<<<<<<<<<<<<<<<<<<<<<<




USA.gov is the U.S. government's official web portal to all federal, state and local government web resources and services.